• In Uzbekistan
  • List of Countries
  • For 7 days
  • Water Temperature
  • Satellite Maps
  • Weather Map
  • Weather Widgets
  • user-avatar
    Login

    Hourly Weather Yeghegnadzor

    Today, 28 May, Sunday

    Time Temperature Precipitation Wind Pressure Humidity
    00:00 +13°C° 0.1 mm 1 mps 650 mmHg 70%
    01:00 +13°C° 0 mm 1 mps 650 mmHg 69%
    02:00 +12°C° 0 mm 1 mps 650 mmHg 69%
    03:00 +12°C° 0 mm 1 mps 650 mmHg 68%
    04:00 +13°C° 0 mm 1 mps 651 mmHg 66%
    05:00 +14°C° 0 mm 1 mps 651 mmHg 64%
    06:00 +15°C° 0 mm 1 mps 652 mmHg 63%
    07:00 +17°C° 0 mm 2 mps 652 mmHg 54%
    08:00 +19°C° 0 mm 2 mps 653 mmHg 45%
    09:00 +21°C° 0 mm 2 mps 653 mmHg 36%
    10:00 +22°C° 0 mm 3 mps 653 mmHg 33%
    11:00 +24°C° 0 mm 3 mps 653 mmHg 30%
    12:00 +26°C° 0 mm 4 mps 653 mmHg 26%
    13:00 +26°C° 0 mm 4 mps 653 mmHg 24%
    14:00 +26°C° 0 mm 5 mps 653 mmHg 23%
    15:00 +27°C° 0 mm 5 mps 653 mmHg 21%
    16:00 +25°C° 0 mm 5 mps 653 mmHg 25%
    17:00 +23°C° 0 mm 4 mps 652 mmHg 29%
    18:00 +22°C° 0 mm 3 mps 652 mmHg 33%
    19:00 +19°C° 0.1 mm 3 mps 652 mmHg 40%
    20:00 +17°C° 0.1 mm 2 mps 652 mmHg 46%
    21:00 +14°C° 0.1 mm 2 mps 652 mmHg 53%
    22:00 +14°C° 0 mm 1 mps 652 mmHg 53%
    23:00 +14°C° 0 mm 1 mps 653 mmHg 54%

    Tomorrow, 29 May, Monday

    Time Temperature Precipitation Wind Pressure Humidity
    00:00 +13°C° 0 mm 1 mps 653 mmHg 55%
    01:00 +13°C° 0 mm 1 mps 653 mmHg 56%
    02:00 +12°C° 0 mm 1 mps 653 mmHg 58%
    03:00 +12°C° 0 mm 1 mps 653 mmHg 60%
    04:00 +13°C° 0 mm 1 mps 653 mmHg 57%
    05:00 +14°C° 0 mm 1 mps 654 mmHg 54%
    06:00 +15°C° 0 mm 1 mps 654 mmHg 52%
    07:00 +18°C° 0 mm 1 mps 655 mmHg 45%
    08:00 +21°C° 0 mm 1 mps 656 mmHg 38%
    09:00 +23°C° 0 mm 1 mps 657 mmHg 31%
    10:00 +24°C° 0 mm 2 mps 657 mmHg 28%
    11:00 +25°C° 0 mm 2 mps 657 mmHg 26%
    12:00 +26°C° 0 mm 2 mps 657 mmHg 23%
    13:00 +26°C° 0.1 mm 2 mps 656 mmHg 24%
    14:00 +26°C° 0.1 mm 2 mps 656 mmHg 25%
    15:00 +27°C° 0.1 mm 3 mps 656 mmHg 26%
    16:00 +26°C° 0.2 mm 2 mps 656 mmHg 32%
    17:00 +25°C° 0.2 mm 2 mps 656 mmHg 38%
    18:00 +24°C° 0.2 mm 1 mps 655 mmHg 44%
    19:00 +22°C° 0.1 mm 1 mps 655 mmHg 51%
    20:00 +18°C° 0.1 mm 2 mps 655 mmHg 57%
    21:00 +16°C° 0.1 mm 2 mps 655 mmHg 64%
    22:00 +15°C° 0 mm 2 mps 655 mmHg 64%
    23:00 +15°C° 0 mm 2 mps 655 mmHg 65%

    Day after tomorrow, 30 May, Tuesday

    Time Temperature Precipitation Wind Pressure Humidity
    00:00 +14°C° 0 mm 2 mps 655 mmHg 65%
    01:00 +14°C° 0 mm 2 mps 655 mmHg 63%
    02:00 +14°C° 0 mm 2 mps 654 mmHg 61%
    03:00 +13°C° 0 mm 2 mps 654 mmHg 60%
    04:00 +14°C° 0 mm 2 mps 655 mmHg 57%
    05:00 +15°C° 0 mm 1 mps 655 mmHg 54%
    06:00 +16°C° 0 mm 1 mps 655 mmHg 51%
    07:00 +19°C° 0 mm 2 mps 656 mmHg 45%
    08:00 +21°C° 0 mm 2 mps 656 mmHg 38%
    09:00 +25°C° 0 mm 2 mps 657 mmHg 31%
    10:00 +26°C° 0 mm 2 mps 657 mmHg 28%
    11:00 +27°C° 0 mm 2 mps 657 mmHg 24%
    12:00 +28°C° 0 mm 3 mps 657 mmHg 21%
    13:00 +28°C° 0 mm 3 mps 656 mmHg 21%
    14:00 +29°C° 0 mm 3 mps 656 mmHg 21%
    15:00 +29°C° 0 mm 3 mps 656 mmHg 21%
    16:00 +28°C° 0 mm 3 mps 655 mmHg 24%
    17:00 +27°C° 0 mm 2 mps 655 mmHg 27%
    18:00 +26°C° 0 mm 2 mps 655 mmHg 30%
    19:00 +23°C° 0 mm 2 mps 654 mmHg 36%
    20:00 +20°C° 0 mm 1 mps 654 mmHg 42%
    21:00 +16°C° 0 mm 1 mps 654 mmHg 47%
    22:00 +15°C° 0 mm 1 mps 653 mmHg 47%
    23:00 +15°C° 0 mm 1 mps 653 mmHg 46%

    31 May, Wednesday

    Time Temperature Precipitation Wind Pressure Humidity
    00:00 +14°C° 0 mm 1 mps 653 mmHg 46%
    01:00 +14°C° 0 mm 1 mps 653 mmHg 46%
    02:00 +14°C° 0 mm 1 mps 653 mmHg 46%
    03:00 +13°C° 0 mm 1 mps 653 mmHg 46%
    04:00 +14°C° 0 mm 1 mps 653 mmHg 45%
    05:00 +16°C° 0 mm 1 mps 654 mmHg 45%
    06:00 +18°C° 0 mm 1 mps 654 mmHg 45%
    07:00 +20°C° 0 mm 1 mps 655 mmHg 38%
    08:00 +23°C° 0 mm 1 mps 655 mmHg 32%
    09:00 +26°C° 0 mm 1 mps 656 mmHg 26%
    10:00 +27°C° 0 mm 1 mps 655 mmHg 24%
    11:00 +28°C° 0 mm 2 mps 655 mmHg 22%
    12:00 +29°C° 0 mm 2 mps 655 mmHg 21%
    13:00 +29°C° 0 mm 2 mps 654 mmHg 21%
    14:00 +29°C° 0 mm 2 mps 654 mmHg 21%
    15:00 +30°C° 0 mm 3 mps 653 mmHg 22%
    16:00 +28°C° 0.3 mm 2 mps 653 mmHg 29%
    17:00 +27°C° 0.3 mm 2 mps 652 mmHg 35%
    18:00 +26°C° 0.3 mm 1 mps 652 mmHg 42%
    19:00 +23°C° 0.8 mm 2 mps 651 mmHg 50%
    20:00 +20°C° 0.8 mm 2 mps 651 mmHg 58%
    21:00 +17°C° 0.8 mm 2 mps 650 mmHg 66%
    22:00 +17°C° 0.6 mm 2 mps 650 mmHg 69%
    23:00 +16°C° 0.6 mm 2 mps 650 mmHg 71%

    1 June, Thursday

    Time Temperature Precipitation Wind Pressure Humidity
    00:00 +16°C° 0.6 mm 2 mps 650 mmHg 73%
    01:00 +15°C° 0.3 mm 2 mps 650 mmHg 73%
    02:00 +15°C° 0.3 mm 1 mps 649 mmHg 74%
    03:00 +14°C° 0.3 mm 1 mps 649 mmHg 74%
    04:00 +15°C° 0.2 mm 1 mps 649 mmHg 72%
    05:00 +16°C° 0.2 mm 1 mps 650 mmHg 69%
    06:00 +18°C° 0.2 mm 1 mps 650 mmHg 67%
    07:00 +19°C° 0.2 mm 1 mps 650 mmHg 58%
    08:00 +21°C° 0.2 mm 1 mps 651 mmHg 49%
    09:00 +23°C° 0.2 mm 1 mps 651 mmHg 41%
    10:00 +24°C° 0.1 mm 2 mps 651 mmHg 35%
    11:00 +25°C° 0.1 mm 2 mps 651 mmHg 30%
    12:00 +26°C° 0.1 mm 2 mps 650 mmHg 24%
    13:00 +27°C° 0 mm 2 mps 650 mmHg 23%
    14:00 +27°C° 0 mm 2 mps 650 mmHg 22%
    15:00 +27°C° 0 mm 2 mps 650 mmHg 21%
    16:00 +26°C° 0.2 mm 2 mps 649 mmHg 27%
    17:00 +25°C° 0.2 mm 2 mps 649 mmHg 33%
    18:00 +24°C° 0.2 mm 1 mps 649 mmHg 40%
    19:00 +21°C° 0.4 mm 1 mps 649 mmHg 47%
    20:00 +19°C° 0.4 mm 1 mps 649 mmHg 54%
    21:00 +16°C° 0.4 mm 2 mps 649 mmHg 62%
    22:00 +15°C° 0.2 mm 1 mps 649 mmHg 63%
    23:00 +15°C° 0.2 mm 1 mps 649 mmHg 65%

    2 June, Friday

    Time Temperature Precipitation Wind Pressure Humidity
    00:00 +14°C° 0.2 mm 1 mps 649 mmHg 67%
    01:00 +13°C° 0.1 mm 1 mps 648 mmHg 68%
    02:00 +13°C° 0.1 mm 1 mps 648 mmHg 68%
    03:00 +12°C° 0.1 mm 1 mps 648 mmHg 69%
    04:00 +13°C° 0 mm 1 mps 649 mmHg 66%
    05:00 +14°C° 0 mm 1 mps 649 mmHg 62%
    06:00 +15°C° 0 mm 1 mps 650 mmHg 58%
    07:00 +18°C° 0 mm 1 mps 650 mmHg 50%
    08:00 +20°C° 0 mm 1 mps 651 mmHg 42%
    09:00 +22°C° 0 mm 1 mps 651 mmHg 34%
    10:00 +23°C° 0 mm 2 mps 651 mmHg 31%
    11:00 +24°C° 0 mm 2 mps 651 mmHg 28%
    12:00 +25°C° 0 mm 2 mps 651 mmHg 26%
    13:00 +26°C° 0.1 mm 2 mps 651 mmHg 26%
    14:00 +26°C° 0.1 mm 2 mps 650 mmHg 26%
    15:00 +26°C° 0.1 mm 2 mps 650 mmHg 26%
    16:00 +25°C° 0.2 mm 2 mps 650 mmHg 32%
    17:00 +24°C° 0.2 mm 2 mps 650 mmHg 39%
    18:00 +23°C° 0.2 mm 1 mps 650 mmHg 45%
    19:00 +19°C° 0.1 mm 2 mps 650 mmHg 52%
    20:00 +17°C° 0.1 mm 2 mps 650 mmHg 59%
    21:00 +15°C° 0.1 mm 2 mps 650 mmHg 67%
    22:00 +15°C° 0.1 mm 2 mps 650 mmHg 69%
    23:00 +14°C° 0.1 mm 2 mps 650 mmHg 72%
    Show more